sat.trackr.live / text

‹ back to catalog

COSMOS 2587 (RODNIK-S *)

NORAD 63290 · 2025-054C

PAYLOAD ACTIVE UNKNOWN

§ Identity

Operator
Country
CIS
Launch date
2025-03-16
Launch site
PLMSC
Launch vehicle
Mass (kg)
RCS (m²)

External: N2YO · Heavens-Above · Gunter

§ Orbital elements

Epoch: 2026-09-20T21:03:17.017920Z

Period
115.86 min
Inclination
82.5026°
Eccentricity
0.0015489
Mean motion
12.42895991 rev/d
Perigee alt
1,482.2 km
Apogee alt
1,506.5 km
Semi-major
7,872.5 km
B*
2.6247e-5
RAAN
19.1671°
Arg perigee
160.7198°
Mean anomaly
199.4471°
Rev number
6,874

§ Raw data

COSMOS 2587 (RODNIK-S *)1 63290U 25054C   26263.87728030  .00000014  00000+0  26247-4 0  99992 63290  82.5026  19.1671 0015489 160.7198 199.4471 12.42895991 68749

JSON: /api/v1/satellites/63290 · /tle

For live sub-satellite position, see the globe view (requires WebGL).

§ Visibility from observer

Set your observer location to see the next 7 days of passes ≥ 10°. The values pass through the URL so the page stays shareable.

No JS? Fill the form by hand. The geolocation button needs JavaScript.